TimeCDT,TemperatureF,Dew PointF,Humidity,Sea Level PressureIn,VisibilityMPH,Wind Direction,Wind SpeedMPH,Gust SpeedMPH,PrecipitationIn,Events,Conditions,WindDirDegrees,DateUTC
12:15 AM,63.9,50.0,61,30.21,10.0,Calm,Calm,-,N/A,,Clear,0,2013-05-02 05:15:00
12:35 AM,64.0,50.0,60,30.20,10.0,Calm,Calm,-,N/A,,Clear,0,2013-05-02 05:35:00
12:55 AM,63.5,50.0,61,30.20,10.0,Calm,Calm,-,N/A,,Clear,0,2013-05-02 05:55:00
1:15 AM,63.0,50.0,63,30.19,10.0,Calm,Calm,-,N/A,,Clear,0,2013-05-02 06:15:00
1:35 AM,62.8,50.0,63,30.19,10.0,ESE,3.5,-,N/A,,Clear,110,2013-05-02 06:35:00
1:55 AM,62.8,50.0,63,30.18,10.0,East,4.6,-,N/A,,Clear,90,2013-05-02 06:55:00
2:15 AM,61.9,49.8,65,30.18,10.0,East,3.5,-,N/A,,Clear,90,2013-05-02 07:15:00
2:35 AM,62.1,49.6,64,30.18,10.0,East,4.6,-,N/A,,Clear,90,2013-05-02 07:35:00
2:55 AM,61.5,49.5,65,30.18,10.0,East,5.8,-,N/A,,Clear,80,2013-05-02 07:55:00
3:15 AM,61.7,49.1,63,30.18,10.0,East,5.8,-,N/A,,Clear,100,2013-05-02 08:15:00
3:35 AM,60.8,49.1,65,30.18,10.0,Calm,Calm,-,N/A,,Clear,0,2013-05-02 08:35:00
3:55 AM,60.8,49.1,65,30.19,10.0,SE,3.5,-,N/A,,Clear,130,2013-05-02 08:55:00
4:15 AM,59.9,49.5,68,30.19,10.0,Calm,Calm,-,N/A,,Clear,0,2013-05-02 09:15:00
4:35 AM,57.6,50.2,76,30.19,10.0,Calm,Calm,-,N/A,,Clear,0,2013-05-02 09:35:00
4:55 AM,56.5,50.4,80,30.19,10.0,Calm,Calm,-,N/A,,Clear,0,2013-05-02 09:55:00
5:15 AM,55.2,50.5,84,30.20,10.0,Calm,Calm,-,N/A,,Clear,0,2013-05-02 10:15:00
5:35 AM,54.3,50.4,86,30.20,10.0,Calm,Calm,-,N/A,,Clear,0,2013-05-02 10:35:00
5:55 AM,53.4,50.2,89,30.21,10.0,Calm,Calm,-,N/A,,Clear,0,2013-05-02 10:55:00
6:15 AM,54.7,50.0,84,30.21,10.0,Calm,Calm,-,N/A,,Clear,0,2013-05-02 11:15:00
6:35 AM,54.9,50.5,85,30.21,10.0,West,3.5,-,N/A,,Clear,260,2013-05-02 11:35:00
6:55 AM,55.9,51.1,84,30.21,10.0,Calm,Calm,-,N/A,,Clear,0,2013-05-02 11:55:00
7:15 AM,57.6,51.8,81,30.21,10.0,Calm,Calm,-,N/A,,Clear,0,2013-05-02 12:15:00
7:35 AM,60.6,50.4,69,30.22,10.0,Calm,Calm,-,N/A,,Clear,0,2013-05-02 12:35:00
7:55 AM,62.1,50.5,66,30.22,10.0,Calm,Calm,-,N/A,,Clear,0,2013-05-02 12:55:00
8:15 AM,63.5,50.7,63,30.23,10.0,Calm,Calm,-,N/A,,Clear,0,2013-05-02 13:15:00
8:35 AM,64.6,51.4,62,30.23,10.0,Calm,Calm,-,N/A,,Clear,0,2013-05-02 13:35:00
8:55 AM,66.0,52.2,61,30.23,10.0,Calm,Calm,-,N/A,,Clear,0,2013-05-02 13:55:00
9:15 AM,66.2,52.3,61,30.23,10.0,ESE,3.5,-,N/A,,Scattered Clouds,110,2013-05-02 14:15:00
9:35 AM,66.4,52.5,61,30.24,10.0,SSE,4.6,-,N/A,,Clear,150,2013-05-02 14:35:00
9:55 AM,68.2,53.1,58,30.24,10.0,SE,3.5,-,N/A,,Clear,130,2013-05-02 14:55:00
10:15 AM,68.4,52.7,57,30.24,10.0,ESE,6.9,-,N/A,,Clear,120,2013-05-02 15:15:00
10:35 AM,68.0,52.7,58,30.24,10.0,South,6.9,-,N/A,,Scattered Clouds,170,2013-05-02 15:35:00
10:55 AM,69.8,53.6,56,30.24,10.0,ESE,5.8,-,N/A,,Clear,120,2013-05-02 15:55:00
11:15 AM,70.3,53.2,55,30.23,10.0,ESE,5.8,-,N/A,,Clear,110,2013-05-02 16:15:00
11:35 AM,70.2,53.1,55,30.23,10.0,SSE,6.9,-,N/A,,Scattered Clouds,150,2013-05-02 16:35:00
11:55 AM,71.8,54.0,53,30.22,10.0,ESE,3.5,-,N/A,,Scattered Clouds,120,2013-05-02 16:55:00
12:15 PM,72.1,53.2,51,30.21,10.0,South,4.6,-,N/A,,Clear,170,2013-05-02 17:15:00
12:35 PM,73.8,54.7,51,30.21,10.0,ESE,5.8,-,N/A,,Clear,120,2013-05-02 17:35:00
12:55 PM,74.5,54.3,49,30.21,10.0,SE,6.9,-,N/A,,Clear,130,2013-05-02 17:55:00
1:15 PM,73.8,53.4,49,30.20,10.0,East,4.6,-,N/A,,Scattered Clouds,100,2013-05-02 18:15:00
1:35 PM,72.9,54.0,51,30.20,10.0,ESE,3.5,-,N/A,,Scattered Clouds,120,2013-05-02 18:35:00
1:55 PM,73.0,53.6,50,30.19,10.0,Calm,Calm,-,N/A,,Scattered Clouds,0,2013-05-02 18:55:00
2:15 PM,73.4,53.8,50,30.18,10.0,South,5.8,-,N/A,,Scattered Clouds,190,2013-05-02 19:15:00
2:35 PM,75.2,54.5,48,30.17,10.0,Calm,Calm,-,N/A,,Scattered Clouds,0,2013-05-02 19:35:00
2:55 PM,76.3,53.8,45,30.17,10.0,East,6.9,-,N/A,,Mostly Cloudy,100,2013-05-02 19:55:00
3:15 PM,74.5,53.6,48,30.17,10.0,ESE,6.9,-,N/A,,Scattered Clouds,120,2013-05-02 20:15:00
3:35 PM,74.3,53.1,47,30.16,10.0,SSE,5.8,-,N/A,,Clear,150,2013-05-02 20:35:00
3:55 PM,73.8,52.9,48,30.16,10.0,SSE,9.2,-,N/A,,Scattered Clouds,160,2013-05-02 20:55:00
4:15 PM,74.5,53.6,48,30.15,10.0,SE,4.6,-,N/A,,Mostly Cloudy,140,2013-05-02 21:15:00
4:35 PM,73.8,52.7,48,30.15,10.0,South,4.6,-,N/A,,Scattered Clouds,170,2013-05-02 21:35:00
4:55 PM,74.3,52.5,46,30.14,10.0,SSE,3.5,-,N/A,,Scattered Clouds,160,2013-05-02 21:55:00
5:15 PM,75.4,52.5,45,30.14,10.0,SSE,4.6,-,N/A,,Clear,150,2013-05-02 22:15:00
5:35 PM,74.8,52.0,45,30.13,10.0,South,4.6,-,N/A,,Clear,170,2013-05-02 22:35:00
5:55 PM,73.4,53.1,49,30.13,10.0,SSE,3.5,-,N/A,,Clear,150,2013-05-02 22:55:00
6:15 PM,73.4,53.6,50,30.13,10.0,Calm,Calm,-,N/A,,Clear,0,2013-05-02 23:15:00
6:55 PM,71.6,53.1,52,30.13,10.0,Calm,Calm,-,N/A,,Clear,0,2013-05-02 23:55:00
7:15 PM,70.5,53.1,54,30.13,10.0,Calm,Calm,-,N/A,,Clear,0,2013-05-03 00:15:00
7:35 PM,69.8,51.8,53,30.14,10.0,ESE,3.5,-,N/A,,Clear,120,2013-05-03 00:35:00
7:55 PM,69.1,51.1,53,30.14,10.0,SE,3.5,-,N/A,,Clear,130,2013-05-03 00:55:00
8:15 PM,68.4,51.1,54,30.15,10.0,SSE,5.8,-,N/A,,Clear,150,2013-05-03 01:15:00
8:35 PM,67.5,51.1,56,30.16,10.0,Calm,Calm,-,N/A,,Clear,0,2013-05-03 01:35:00
8:55 PM,67.1,50.9,56,30.17,10.0,Calm,Calm,-,N/A,,Clear,0,2013-05-03 01:55:00
9:15 PM,66.2,50.9,58,30.17,10.0,Calm,Calm,-,N/A,,Clear,0,2013-05-03 02:15:00
9:35 PM,65.8,50.9,58,30.17,10.0,SSE,3.5,-,N/A,,Clear,150,2013-05-03 02:35:00
9:55 PM,65.3,50.9,60,30.17,10.0,SE,3.5,-,N/A,,Clear,130,2013-05-03 02:55:00
10:15 PM,64.6,50.9,61,30.17,10.0,SE,6.9,-,N/A,,Clear,130,2013-05-03 03:15:00
10:35 PM,64.4,51.3,62,30.16,10.0,SE,4.6,-,N/A,,Clear,130,2013-05-03 03:35:00
10:55 PM,63.9,51.6,64,30.17,10.0,Calm,Calm,-,N/A,,Clear,0,2013-05-03 03:55:00
11:15 PM,63.3,51.8,66,30.17,10.0,SSE,3.5,-,N/A,,Clear,150,2013-05-03 04:15:00
11:35 PM,62.8,51.6,67,30.16,10.0,Calm,Calm,-,N/A,,Mostly Cloudy,0,2013-05-03 04:35:00
11:55 PM,62.4,51.6,68,30.16,10.0,Calm,Calm,-,N/A,,Scattered Clouds,0,2013-05-03 04:55:00